| time (UTC) | temp C | wind direction | speed KPH | gust KPH | rain 1hr cm | rain 24hr cm | rain mn cm | humidity % | barometer mb |
| 20260504235132 | 20 | 186 | 6.4 | 27.4 | 0.00 | 0.00 | 0.00 | 35 | 1005.7 |
| 20260504234636 | 20 | 307 | 9.7 | 27.4 | 0.00 | 0.00 | 0.00 | 34 | 1005.7 |
| 20260504234133 | 21 | 130 | 11.3 | 25.7 | 0.00 | 0.00 | 0.00 | 34 | 1005.6 |
| 20260504233621 | 21 | 4 | 8.0 | 25.7 | 0.00 | 0.00 | 0.00 | 33 | 1005.5 |
| 20260504233117 | 21 | 37 | 8.0 | 22.5 | 0.00 | 0.00 | 0.00 | 33 | 1005.4 |
| 20260504232624 | 21 | 29 | 9.7 | 22.5 | 0.00 | 0.00 | 0.00 | 32 | 1005.2 |
| 20260504232122 | 22 | 65 | 11.3 | 22.5 | 0.00 | 0.00 | 0.00 | 31 | 1005.2 |
| 20260504231628 | 22 | 357 | 6.4 | 17.7 | 0.00 | 0.00 | 0.00 | 32 | 1005.1 |
| 20260504231128 | 22 | 71 | 9.7 | 20.9 | 0.00 | 0.00 | 0.00 | 31 | 1005.0 |
| 20260504230619 | 22 | 31 | 14.5 | 20.9 | 0.00 | 0.00 | 0.00 | 31 | 1004.9 |
| 20260504230123 | 23 | 47 | 11.3 | 19.3 | 0.00 | 0.00 | 0.00 | 30 | 1004.8 |
| 20260504225626 | 23 | 19 | 6.4 | 29.0 | 0.00 | 0.00 | 0.00 | 31 | 1004.6 |
| 20260504225144 | 23 | 74 | 6.4 | 29.0 | 0.00 | 0.00 | 0.00 | 31 | 1004.5 |
| 20260504224631 | 23 | 28 | 8.0 | 25.7 | 0.00 | 0.00 | 0.00 | 31 | 1004.4 |
| 20260504224149 | 23 | 35 | 8.0 | 25.7 | 0.00 | 0.00 | 0.00 | 30 | 1004.4 |
| 20260504223648 | 23 | 40 | 9.7 | 19.3 | 0.00 | 0.00 | 0.00 | 30 | 1004.3 |
| 20260504223149 | 24 | 94 | 9.7 | 19.3 | 0.00 | 0.00 | 0.00 | 30 | 1004.2 |
| 20260504222620 | 24 | 111 | 6.4 | 19.3 | 0.00 | 0.00 | 0.00 | 31 | 1003.9 |
| 20260504222120 | 24 | 354 | 6.4 | 20.9 | 0.00 | 0.00 | 0.00 | 30 | 1003.8 |
| 20260504221624 | 24 | 331 | 9.7 | 22.5 | 0.00 | 0.00 | 0.00 | 30 | 1003.7 |
| 20260504221120 | 24 | 19 | 6.4 | 22.5 | 0.00 | 0.00 | 0.00 | 30 | 1003.7 |
| 20260504220625 | 25 | 94 | 6.4 | 20.9 | 0.00 | 0.00 | 0.00 | 31 | 1003.4 |
| 20260504220127 | 25 | 327 | 9.7 | 20.9 | 0.00 | 0.00 | 0.00 | 30 | 1003.5 |
| 20260504215632 | 25 | 66 | 8.0 | 29.0 | 0.00 | 0.00 | 0.00 | 30 | 1003.5 |
| 20260504215152 | 25 | 328 | 8.0 | 29.0 | 0.00 | 0.00 | 0.00 | 30 | 1003.4 |
| 20260504214635 | 25 | 19 | 11.3 | 29.0 | 0.00 | 0.00 | 0.00 | 29 | 1003.5 |
| 20260504214132 | 25 | 353 | 9.7 | 22.5 | 0.00 | 0.00 | 0.00 | 30 | 1003.4 |
| 20260504213637 | 25 | 323 | 6.4 | 20.9 | 0.00 | 0.00 | 0.00 | 30 | 1003.4 |
| 20260504213134 | 25 | 79 | 6.4 | 20.9 | 0.00 | 0.00 | 0.00 | 31 | 1003.4 |
| 20260504212625 | 25 | 334 | 8.0 | 19.3 | 0.00 | 0.00 | 0.00 | 32 | 1003.3 |
| 20260504212130 | 25 | 14 | 4.8 | 19.3 | 0.00 | 0.00 | 0.00 | 31 | 1003.2 |
| 20260504211618 | 26 | 188 | 6.4 | 22.5 | 0.00 | 0.00 | 0.00 | 33 | 1003.2 |
| 20260504211121 | 25 | 44 | 8.0 | 22.5 | 0.00 | 0.00 | 0.00 | 32 | 1003.2 |
| 20260504210651 | 25 | 88 | 6.4 | 22.5 | 0.00 | 0.00 | 0.00 | 33 | 1003.2 |
| 20260504210115 | 26 | 79 | 6.4 | 19.3 | 0.00 | 0.00 | 0.00 | 32 | 1003.3 |
| 20260504205623 | 26 | 27 | 8.0 | 24.1 | 0.00 | 0.00 | 0.00 | 33 | 1003.2 |
| 20260504205121 | 26 | 307 | 9.7 | 32.2 | 0.00 | 0.00 | 0.00 | 33 | 1003.1 |
| 20260504204626 | 26 | 300 | 6.4 | 32.2 | 0.00 | 0.00 | 0.00 | 34 | 1003.2 |
| 20260504204122 | 26 | 47 | 3.2 | 17.7 | 0.00 | 0.00 | 0.00 | 35 | 1003.0 |
| 20260504203631 | 26 | 65 | 8.0 | 17.7 | 0.00 | 0.00 | 0.00 | 34 | 1003.0 |
| 20260504203129 | 26 | 318 | 6.4 | 12.9 | 0.00 | 0.00 | 0.00 | 35 | 1003.0 |
| 20260504202657 | 26 | 146 | 8.0 | 12.9 | 0.00 | 0.00 | 0.00 | 35 | 1002.9 |
| 20260504202114 | 26 | 327 | 6.4 | 14.5 | 0.00 | 0.00 | 0.00 | 34 | 1003.0 |
| 20260504201623 | 26 | 315 | 8.0 | 16.1 | 0.00 | 0.00 | 0.00 | 35 | 1003.0 |
| 20260504201121 | 26 | 340 | 8.0 | 16.1 | 0.00 | 0.00 | 0.00 | 36 | 1002.9 |
| 20260504200627 | 26 | 33 | 3.2 | 16.1 | 0.00 | 0.00 | 0.00 | 35 | 1002.9 |
| 20260504200125 | 26 | 266 | 3.2 | 16.1 | 0.00 | 0.00 | 0.00 | 36 | 1002.9 |
| 20260504195628 | 26 | 235 | 1.6 | 20.9 | 0.00 | 0.00 | 0.00 | 38 | 1002.8 |
| 20260504195129 | 26 | 24 | 8.0 | 20.9 | 0.00 | 0.00 | 0.00 | 35 | 1002.8 |
| 20260504194636 | 26 | 40 | 8.0 | 16.1 | 0.00 | 0.00 | 0.00 | 36 | 1002.8 |
| 20260504194133 | 26 | 329 | 8.0 | 14.5 | 0.00 | 0.00 | 0.00 | 36 | 1002.8 |
| 20260504193623 | 26 | 342 | 8.0 | 19.3 | 0.00 | 0.00 | 0.00 | 35 | 1002.8 |
| 20260504193120 | 26 | 30 | 12.9 | 19.3 | 0.00 | 0.00 | 0.00 | 34 | 1002.7 |
| 20260504192626 | 26 | 59 | 9.7 | 19.3 | 0.00 | 0.00 | 0.00 | 34 | 1002.7 |
| 20260504192144 | 26 | 312 | 9.7 | 19.3 | 0.00 | 0.00 | 0.00 | 35 | 1002.7 |
| 20260504191648 | 26 | 292 | 11.3 | 20.9 | 0.00 | 0.00 | 0.00 | 34 | 1002.6 |
| 20260504191125 | 26 | 305 | 9.7 | 20.9 | 0.00 | 0.00 | 0.00 | 34 | 1002.6 |
| 20260504190628 | 27 | 284 | 6.4 | 20.9 | 0.00 | 0.00 | 0.00 | 34 | 1002.6 |
| 20260504190132 | 26 | 332 | 6.4 | 30.6 | 0.00 | 0.00 | 0.00 | 33 | 1002.4 |
| 20260504185636 | 27 | 317 | 9.7 | 30.6 | 0.00 | 0.00 | 0.00 | 32 | 1002.5 |
| 20260504185118 | 27 | 249 | 3.2 | 17.7 | 0.00 | 0.00 | 0.00 | 33 | 1002.4 |
| 20260504184625 | 27 | 308 | 4.8 | 20.9 | 0.00 | 0.00 | 0.00 | 33 | 1002.4 |
| 20260504184131 | 27 | 250 | 6.4 | 19.3 | 0.00 | 0.00 | 0.00 | 31 | 1002.3 |
| 20260504183655 | 27 | 341 | 6.4 | 14.5 | 0.00 | 0.00 | 0.00 | 32 | 1002.2 |
| 20260504183135 | 27 | 255 | 4.8 | 14.5 | 0.00 | 0.00 | 0.00 | 31 | 1002.2 |
| 20260504182623 | 27 | 314 | 8.0 | 20.9 | 0.00 | 0.00 | 0.00 | 31 | 1002.3 |
| 20260504182121 | 27 | 284 | 8.0 | 24.1 | 0.00 | 0.00 | 0.00 | 31 | 1002.3 |
| 20260504181623 | 26 | 255 | 8.0 | 24.1 | 0.00 | 0.00 | 0.00 | 32 | 1002.3 |
| 20260504181118 | 27 | 262 | 8.0 | 24.1 | 0.00 | 0.00 | 0.00 | 31 | 1002.3 |
| 20260504180623 | 27 | 277 | 6.4 | 17.7 | 0.00 | 0.00 | 0.00 | 32 | 1002.3 |
| 20260504180145 | 27 | 57 | 8.0 | 14.5 | 0.00 | 0.00 | 0.00 | 32 | 1002.4 |
| 20260504175631 | 26 | 344 | 4.8 | 17.7 | 0.00 | 0.00 | 0.00 | 32 | 1002.5 |
| 20260504175117 | 26 | 291 | 4.8 | 20.9 | 0.00 | 0.00 | 0.00 | 32 | 1002.5 |
| 20260504174623 | 26 | 279 | 6.4 | 20.9 | 0.00 | 0.00 | 0.00 | 32 | 1002.6 |
| 20260504174142 | 26 | 285 | 4.8 | 25.7 | 0.00 | 0.00 | 0.00 | 35 | 1002.6 |
| 20260504173628 | 26 | 296 | 11.3 | 25.7 | 0.00 | 0.00 | 0.00 | 33 | 1002.7 |
| 20260504173127 | 26 | 222 | 8.0 | 17.7 | 0.00 | 0.00 | 0.00 | 34 | 1002.7 |
| 20260504172630 | 26 | 286 | 8.0 | 20.9 | 0.00 | 0.00 | 0.00 | 34 | 1002.6 |
| 20260504172128 | 26 | 19 | 8.0 | 20.9 | 0.00 | 0.00 | 0.00 | 33 | 1002.7 |
| 20260504171629 | 26 | 212 | 6.4 | 16.1 | 0.00 | 0.00 | 0.00 | 35 | 1002.7 |
| 20260504171133 | 25 | 273 | 6.4 | 16.1 | 0.00 | 0.00 | 0.00 | 37 | 1002.8 |
| 20260504170619 | 25 | 183 | 4.8 | 12.9 | 0.00 | 0.00 | 0.00 | 38 | 1002.6 |
| 20260504170123 | 25 | 9 | 6.4 | 14.5 | 0.00 | 0.00 | 0.00 | 38 | 1002.8 |
| 20260504160126 | 22 | 243 | 4.8 | 11.3 | 0.00 | 0.00 | 0.00 | 44 | 1003.0 |
| 20260504151119 | 20 | 220 | 4.8 | 11.3 | 0.00 | 0.00 | 0.00 | 47 | 1002.9 |
| 20260504150624 | 20 | 267 | 6.4 | 11.3 | 0.00 | 0.00 | 0.00 | 47 | 1003.0 |
| 20260504150130 | 20 | 261 | 4.8 | 11.3 | 0.00 | 0.00 | 0.00 | 48 | 1002.9 |
| 20260504141125 | 17 | 358 | 4.8 | 12.9 | 0.00 | 0.00 | 0.00 | 52 | 1003.5 |
| 20260504140628 | 16 | 260 | 8.0 | 12.9 | 0.00 | 0.00 | 0.00 | 53 | 1003.5 |
| 20260504140133 | 16 | 248 | 1.6 | 11.3 | 0.00 | 0.00 | 0.00 | 55 | 1003.6 |
| 20260504130652 | 14 | 285 | 3.2 | 9.7 | 0.00 | 0.00 | 0.00 | 62 | 1003.5 |
| 20260504130127 | 13 | 264 | 1.6 | 9.7 | 0.00 | 0.00 | 0.00 | 66 | 1003.5 |
| 20260504120119 | 10 | 264 | 0.0 | 1.6 | 0.00 | 0.00 | 0.00 | 74 | 1003.2 |
| 20260504110629 | 10 | 264 | 0.0 | 0.0 | 0.00 | 0.00 | 0.00 | 72 | 1003.5 |
| 20260504043129 | 15 | 264 | 0.0 | 0.0 | 0.00 | 0.00 | 0.00 | 57 | 1007.6 |
| 20260504042632 | 15 | 264 | 0.0 | 0.0 | 0.00 | 0.00 | 0.00 | 56 | 1007.6 |
| 20260504042133 | 15 | 264 | 0.0 | 1.6 | 0.00 | 0.00 | 0.00 | 55 | 1007.6 |
| 20260504041619 | 16 | 264 | 0.0 | 1.6 | 0.00 | 0.00 | 0.00 | 56 | 1007.6 |
| 20260504041135 | 16 | 264 | 0.0 | 1.6 | 0.00 | 0.00 | 0.00 | 55 | 1007.8 |
| 20260504040618 | 16 | 264 | 0.0 | 1.6 | 0.00 | 0.00 | 0.00 | 56 | 1007.9 |
| 20260504040135 | 16 | 264 | 0.0 | 1.6 | 0.00 | 0.00 | 0.00 | 55 | 1007.9 |
| 20260504035625 | 16 | 264 | 0.0 | 1.6 | 0.00 | 0.00 | 0.00 | 55 | 1007.9 |
| 20260504035123 | 16 | 264 | 0.0 | 0.0 | 0.00 | 0.00 | 0.00 | 55 | 1008.0 |
| 20260504034628 | 16 | 264 | 0.0 | 1.6 | 0.00 | 0.00 | 0.00 | 54 | 1008.1 |
| 20260504034143 | 16 | 264 | 0.0 | 1.6 | 0.00 | 0.00 | 0.00 | 53 | 1008.1 |
| 20260504033626 | 16 | 264 | 0.0 | 0.0 | 0.00 | 0.00 | 0.00 | 53 | 1008.2 |
| 20260504033119 | 16 | 264 | 0.0 | 0.0 | 0.00 | 0.00 | 0.00 | 53 | 1008.2 |
| 20260504032623 | 17 | 264 | 0.0 | 0.0 | 0.00 | 0.00 | 0.00 | 52 | 1008.2 |
| 20260504032124 | 17 | 264 | 0.0 | 0.0 | 0.00 | 0.00 | 0.00 | 53 | 1008.3 |
| 20260504031653 | 17 | 264 | 0.0 | 0.0 | 0.00 | 0.00 | 0.00 | 53 | 1008.3 |
| 20260504031130 | 17 | 264 | 0.0 | 0.0 | 0.00 | 0.00 | 0.00 | 52 | 1008.4 |
| 20260504030633 | 17 | 264 | 0.0 | 0.0 | 0.00 | 0.00 | 0.00 | 51 | 1008.4 |
| 20260504030131 | 17 | 264 | 0.0 | 0.0 | 0.00 | 0.00 | 0.00 | 51 | 1008.3 |
| 20260504025635 | 17 | 264 | 0.0 | 0.0 | 0.00 | 0.00 | 0.00 | 51 | 1008.4 |
| 20260504025131 | 17 | 264 | 0.0 | 1.6 | 0.00 | 0.00 | 0.00 | 50 | 1008.4 |
| 20260504024635 | 17 | 264 | 0.0 | 1.6 | 0.00 | 0.00 | 0.00 | 51 | 1008.4 |
| 20260504024132 | 17 | 264 | 0.0 | 0.0 | 0.00 | 0.00 | 0.00 | 50 | 1008.4 |
| 20260504023657 | 17 | 264 | 0.0 | 0.0 | 0.00 | 0.00 | 0.00 | 50 | 1008.5 |
| 20260504023114 | 17 | 264 | 0.0 | 0.0 | 0.00 | 0.00 | 0.00 | 49 | 1008.4 |
| 20260504022624 | 18 | 264 | 0.0 | 0.0 | 0.00 | 0.00 | 0.00 | 49 | 1008.4 |
| 20260504022121 | 18 | 264 | 0.0 | 1.6 | 0.00 | 0.00 | 0.00 | 48 | 1008.5 |
| 20260504021629 | 18 | 264 | 0.0 | 1.6 | 0.00 | 0.00 | 0.00 | 48 | 1008.5 |
| 20260504021131 | 18 | 264 | 0.0 | 0.0 | 0.00 | 0.00 | 0.00 | 47 | 1008.5 |
| 20260504020635 | 18 | 264 | 0.0 | 0.0 | 0.00 | 0.00 | 0.00 | 46 | 1008.6 |
| 20260504020119 | 19 | 264 | 0.0 | 1.6 | 0.00 | 0.00 | 0.00 | 46 | 1008.6 |
| 20260504015622 | 19 | 264 | 0.0 | 1.6 | 0.00 | 0.00 | 0.00 | 44 | 1008.7 |
| 20260504015143 | 20 | 264 | 0.0 | 1.6 | 0.00 | 0.00 | 0.00 | 44 | 1008.7 |
| 20260504014645 | 20 | 264 | 0.0 | 1.6 | 0.00 | 0.00 | 0.00 | 42 | 1008.7 |
| 20260504014123 | 20 | 264 | 0.0 | 0.0 | 0.00 | 0.00 | 0.00 | 42 | 1008.7 |
| 20260504013627 | 20 | 264 | 0.0 | 0.0 | 0.00 | 0.00 | 0.00 | 41 | 1008.7 |
| 20260504013123 | 21 | 264 | 0.0 | 3.2 | 0.00 | 0.00 | 0.00 | 40 | 1008.7 |
| 20260504012629 | 21 | 264 | 0.0 | 3.2 | 0.00 | 0.00 | 0.00 | 39 | 1008.7 |
| 20260504012129 | 21 | 260 | 1.6 | 6.4 | 0.00 | 0.00 | 0.00 | 38 | 1008.6 |
| 20260504011633 | 21 | 259 | 1.6 | 6.4 | 0.00 | 0.00 | 0.00 | 38 | 1008.7 |
| 20260504011134 | 22 | 277 | 1.6 | 4.8 | 0.00 | 0.00 | 0.00 | 39 | 1008.7 |
| 20260504010637 | 22 | 220 | 0.0 | 3.2 | 0.00 | 0.00 | 0.00 | 38 | 1008.7 |
| 20260504010119 | 22 | 220 | 0.0 | 3.2 | 0.00 | 0.00 | 0.00 | 36 | 1008.7 |
| 20260504005644 | 22 | 220 | 0.0 | 6.4 | 0.00 | 0.00 | 0.00 | 36 | 1008.8 |
| 20260504005123 | 22 | 219 | 3.2 | 6.4 | 0.00 | 0.00 | 0.00 | 36 | 1008.8 |
| 20260504004630 | 22 | 222 | 1.6 | 6.4 | 0.00 | 0.00 | 0.00 | 35 | 1008.9 |
| 20260504004153 | 22 | 229 | 1.6 | 8.0 | 0.00 | 0.00 | 0.00 | 36 | 1008.9 |
| 20260504003636 | 22 | 229 | 4.8 | 8.0 | 0.00 | 0.00 | 0.00 | 35 | 1008.9 |
| 20260504003135 | 23 | 247 | 3.2 | 6.4 | 0.00 | 0.00 | 0.00 | 35 | 1008.9 |
| 20260504002623 | 23 | 248 | 1.6 | 8.0 | 0.00 | 0.00 | 0.00 | 34 | 1009.0 |
| 20260504002143 | 23 | 265 | 3.2 | 9.7 | 0.00 | 0.00 | 0.00 | 34 | 1009.0 |
| 20260504001650 | 23 | 277 | 4.8 | 9.7 | 0.00 | 0.00 | 0.00 | 33 | 1009.1 |
| 20260504001127 | 23 | 254 | 4.8 | 6.4 | 0.00 | 0.00 | 0.00 | 32 | 1009.1 |
| 20260504000651 | 24 | 235 | 0.0 | 9.7 | 0.00 | 0.00 | 0.00 | 33 | 1009.2 |
| 20260504000129 | 24 | 262 | 1.6 | 9.7 | 0.00 | 0.00 | 0.00 | 31 | 1009.2 |
| 20260503235635 | 24 | 236 | 1.6 | 8.0 | 0.00 | 0.00 | 0.00 | 31 | 1009.2 |